Wind_Speed
26 28 29 29 30 29 29 30 31 33 34 36 38 39 42 44 45 46 47 48 51 52 54 53 52 52 51 50 50 49 48 48 47 46 46 45 45 44 43 42 41 39 38
27 28 28 29 30 31 32 33 34 35 36 37 39 41 44 46 48 49 49 50 51 53 55 57 56 55 54 54 53 53 52 52 52 51 51 50 50 49 48 47 46 45 44
28 28 29 31 32 33 35 36 37 38 40 41 43 45 47 49 50 51 52 53 53 54 56 58 59 59 58 58 57 55 54 55 55 55 55 55 54 54 53 52 52 51 50
29 31 32 34 35 37 38 39 41 42 44 46 48 50 51 53 54 56 56 56 57 58 59 61 62 62 62 61 60 59 57 57 58 58 58 58 59 58 58 56 55 54 54
32 34 36 38 39 41 42 43 44 46 47 49 51 53 55 57 59 60 61 61 62 63 64 66 67 68 68 67 66 64 63 62 62 63 63 64 64 63 63 62 60 58 57
36 38 40 41 43 45 46 48 49 51 52 53 54 56 58 60 60 61 62 63 64 65 67 69 71 72 73 74 73 71 69 69 68 68 68 69 70 69 68 67 65 63 61
39 41 43 45 46 48 50 52 53 55 56 57 58 59 59 59 58 58 57 57 58 60 63 66 68 71 73 75 76 74 73 72 71 70 70 71 72 74 73 71 69 67 65
43 45 47 49 51 52 54 55 57 58 59 60 61 60 56 54 53 51 50 51 53 54 55 57 58 60 63 66 68 69 69 69 68 67 67 68 71 74 76 75 72 69 67
48 50 52 54 55 57 58 59 60 60 61 61 59 55 50 48 46 45 45 47 48 50 53 55 55 55 54 54 54 56 58 59 60 61 63 65 68 71 74 76 75 72 69
52 54 56 57 59 59 60 61 61 61 60 55 50 47 45 45 45 44 44 46 48 50 51 52 52 53 52 51 50 50 51 52 53 54 57 60 62 67 71 73 73 71 69
57 59 59 59 60 61 62 61 59 56 51 45 42 43 43 45 46 48 49 50 52 53 53 52 51 50 50 50 50 49 49 48 48 49 49 50 52 56 62 68 69 70 68
61 62 61 60 61 61 61 58 54 48 43 41 42 43 45 46 48 51 52 53 54 55 56 55 52 50 48 48 47 46 45 45 44 44 42 41 42 46 52 59 64 66 65
63 62 60 60 61 60 56 51 47 43 42 43 44 46 48 51 52 54 55 56 56 56 55 55 54 51 48 45 44 42 42 40 39 38 38 36 36 39 45 52 58 61 61
61 60 60 60 59 54 49 46 44 43 44 46 47 49 52 55 57 58 59 59 57 56 55 53 52 51 49 45 42 40 38 36 35 35 35 34 34 35 39 44 49 53 56
59 58 58 56 52 48 45 44 44 45 47 49 52 54 56 59 60 61 61 61 59 57 54 50 48 48 47 45 42 38 35 33 32 33 33 33 34 35 38 40 43 46 49
56 56 54 50 47 45 44 44 46 48 51 54 57 59 61 61 61 61 60 59 58 57 53 47 43 42 43 42 39 35 31 30 30 31 32 32 33 34 36 38 40 42 45
55 53 50 47 45 45 45 47 49 52 55 58 61 63 63 61 59 58 57 55 53 52 49 43 39 37 38 38 34 30 27 27 28 29 31 32 33 35 36 37 39 41 43
52 49 47 46 45 46 48 51 54 57 59 62 64 65 63 60 57 55 53 50 48 46 44 38 34 33 34 32 28 25 23 23 25 27 29 31 33 34 36 38 40 41 43
49 47 46 46 48 50 52 55 58 60 63 64 65 64 61 57 53 49 47 44 43 41 38 33 28 28 29 27 22 20 19 20 22 25 27 29 32 33 35 38 40 42 44
47 46 47 49 51 53 56 58 60 62 63 63 62 58 54 50 46 43 40 39 38 35 33 28 24 24 25 22 18 17 17 19 20 22 24 26 28 30 33 36 38 41 43
46 47 49 52 54 56 58 59 60 61 60 57 53 49 46 43 40 37 35 34 32 30 27 23 20 20 20 18 16 15 16 17 18 20 21 23 25 28 31 34 37 40 41
47 49 52 54 56 57 58 58 58 56 54 51 46 43 41 38 34 30 29 27 27 24 22 19 16 15 16 14 14 13 14 15 17 18 19 21 23 26 27 28 28 30 33
49 52 54 55 55 56 56 55 53 52 49 45 40 36 33 29 25 23 23 23 22 19 16 14 12 12 11 11 11 11 12 14 14 15 15 17 19 20 19 19 20 21 24
51 53 54 53 54 54 52 50 48 45 41 35 30 28 25 22 20 20 20 20 17 14 12 11 10 9 8 8 8 8 9 9 9 9 10 11 10 10 10 11 11 10 9
52 53 52 52 52 50 47 44 40 35 32 29 28 25 22 19 18 18 17 15 12 9 10 10 9 7 6 6 6 6 5 5 4 5 5 4 4 4 5 4 3 3 7
51 51 51 50 47 44 41 37 33 30 30 29 26 23 20 18 17 16 13 10 8 9 11 11 9 6 5 6 6 6 5 2 1 2 2 4 4 5 5 3 5 9 14
Wind_Direction
300 301 301 302 303 304 304 303 301 300 298 294 291 288 287 285 283 282 280 279 277 275 273 273 272 271 270 270 270 270 270 269 267 265 263 261 260 258 256 254 253 254 254
302 303 304 305 306 306 306 305 302 300 298 296 293 291 289 287 286 285 283 282 279 276 273 271 270 269 269 269 268 268 268 268 268 267 265 264 262 260 257 255 253 251 250
306 306 307 307 307 307 305 303 302 301 299 297 295 293 290 288 286 285 285 283 281 278 274 271 269 268 267 266 265 264 264 265 265 265 264 263 263 262 260 258 255 254 252
309 309 308 307 307 306 304 301 300 299 297 296 294 293 291 288 287 285 284 283 281 279 277 275 271 269 267 266 265 263 261 261 261 262 263 262 261 261 260 260 258 255 253
311 310 308 307 306 304 303 301 299 298 296 294 292 291 290 288 286 285 284 283 281 279 278 277 275 272 271 269 266 265 264 262 261 261 261 261 260 259 258 258 257 256 254
316 313 311 309 308 306 304 302 301 299 297 294 292 291 290 288 286 285 284 283 282 280 279 278 277 275 274 272 270 268 266 265 263 262 260 259 258 257 257 255 254 254 253
320 317 314 312 309 307 305 303 301 299 297 295 293 292 291 288 287 285 285 284 284 282 280 279 278 276 274 273 271 269 267 267 265 263 261 259 256 254 254 252 251 251 250
322 320 316 313 310 307 305 302 300 298 296 294 293 292 289 287 286 286 286 285 285 284 284 282 281 280 277 275 272 269 267 266 265 264 263 260 257 253 251 249 248 247 247
322 319 316 313 310 307 305 302 300 298 296 295 293 290 288 287 286 285 286 287 288 288 287 285 284 282 280 278 275 270 267 266 265 264 263 262 259 254 249 245 244 244 244
319 317 314 312 310 308 305 303 302 300 298 296 292 289 289 289 289 288 289 290 289 289 288 287 285 282 280 278 275 272 269 268 267 265 265 264 260 253 246 242 239 240 242
317 315 313 312 310 308 306 304 302 301 299 296 293 291 291 291 291 292 293 293 293 292 291 289 285 282 279 277 275 272 270 268 267 266 266 264 259 252 244 239 237 236 237
316 314 313 312 310 308 306 304 302 300 298 295 294 293 292 292 293 293 294 294 294 294 293 292 288 283 278 276 275 272 269 267 265 264 263 262 257 249 242 237 234 233 234
314 313 312 310 309 307 305 303 300 298 296 295 295 295 295 295 295 295 294 294 294 294 294 292 289 284 279 276 276 272 267 264 261 260 258 257 253 246 240 236 234 234 234
312 311 310 310 309 307 305 302 299 297 296 296 295 295 295 296 296 295 294 294 293 293 294 292 288 282 277 275 275 272 266 261 258 256 254 252 249 243 240 238 236 236 236
310 310 311 311 310 307 303 300 298 297 297 296 296 297 297 297 296 295 294 293 293 292 293 291 285 278 273 271 272 271 264 258 254 252 250 249 247 242 240 238 237 236 237
309 311 311 310 308 305 302 300 299 299 299 298 298 298 297 297 295 293 292 292 293 293 294 291 283 272 267 267 268 268 261 254 251 250 249 248 246 243 240 238 237 237 238
311 311 309 307 306 304 303 302 302 301 300 299 299 298 297 296 294 292 291 292 292 293 293 291 281 268 262 263 266 265 256 249 247 248 247 247 246 245 243 241 240 241 242
311 309 307 306 306 306 306 304 303 302 301 300 299 298 297 295 293 291 291 291 291 293 293 289 277 263 258 260 264 260 251 245 245 245 247 248 247 245 245 244 245 245 245
310 308 307 307 308 308 307 306 305 303 302 301 300 299 297 295 293 290 289 289 290 292 292 287 270 257 255 259 258 251 246 243 243 245 248 249 249 248 247 248 250 250 249
309 308 309 309 310 309 308 307 306 305 304 303 302 302 300 297 293 288 286 287 289 291 290 280 262 251 251 254 250 243 241 242 245 249 254 255 254 253 252 253 255 256 255
309 310 311 312 311 310 309 308 307 307 307 306 307 307 304 299 293 288 285 286 287 288 283 270 255 245 246 249 243 240 240 246 251 257 261 261 260 260 260 261 261 260 257
312 313 313 312 311 310 310 310 310 309 308 309 309 308 304 300 294 288 286 286 286 282 273 260 247 238 240 242 238 237 242 250 259 264 266 265 265 266 267 267 266 261 256
314 314 313 312 311 311 312 312 311 309 309 309 309 309 307 302 297 291 287 288 284 273 258 244 231 228 232 235 233 236 243 253 261 264 267 270 273 272 272 270 270 266 257
315 314 313 312 313 314 314 314 313 312 312 313 313 312 309 304 298 293 289 288 278 262 236 215 206 211 219 222 222 228 238 245 252 263 277 282 282 285 284 286 279 275 254
315 314 314 315 316 317 317 317 316 315 315 314 313 310 307 303 299 295 290 281 265 232 196 182 184 191 201 204 202 208 211 219 248 279 294 308 323 331 332 317 279 176 155
315 316 317 319 321 321 321 320 319 318 316 314 310 305 300 296 297 296 287 264 230 188 168 164 170 179 186 182 175 168 161 170 299 353 31 35 34 41 48 75 129 141 144
Height
5838 5836 5834 5831 5829 5827 5824 5822 5820 5818 5816 5814 5812 5810 5807 5806 5804 5802 5801 5799 5798 5797 5797 5796 5795 5795 5795 5795 5795 5796 5797 5798 5799 5800 5801 5803 5804 5805 5807 5809 5811 5813 5816
5833 5831 5829 5826 5823 5821 5818 5815 5813 5811 5808 5806 5803 5800 5797 5794 5792 5790 5788 5787 5785 5784 5783 5783 5782 5782 5782 5782 5783 5784 5784 5785 5786 5788 5789 5791 5792 5794 5797 5799 5802 5804 5806
5828 5826 5824 5821 5818 5815 5812 5809 5806 5803 5800 5797 5794 5790 5787 5783 5780 5778 5775 5773 5772 5770 5769 5769 5769 5768 5768 5768 5769 5770 5771 5772 5773 5774 5776 5777 5779 5781 5784 5787 5790 5793 5796
5823 5820 5817 5814 5811 5808 5804 5801 5798 5795 5792 5788 5784 5780 5776 5772 5768 5765 5762 5759 5757 5756 5754 5753 5753 5752 5752 5752 5753 5755 5756 5758 5759 5760 5762 5763 5765 5767 5769 5772 5776 5779 5783
5817 5814 5810 5807 5803 5799 5795 5792 5788 5784 5781 5777 5772 5767 5763 5758 5754 5750 5747 5744 5742 5740 5738 5736 5735 5734 5733 5733 5734 5736 5739 5741 5743 5744 5746 5748 5749 5752 5755 5758 5761 5764 5768
5809 5805 5801 5796 5792 5788 5783 5779 5775 5771 5767 5762 5758 5753 5748 5743 5738 5734 5731 5728 5725 5722 5719 5717 5715 5714 5713 5712 5714 5715 5718 5720 5723 5725 5727 5730 5732 5734 5738 5741 5745 5748 5752
5800 5795 5791 5786 5781 5776 5771 5766 5761 5756 5751 5746 5742 5737 5732 5726 5722 5718 5715 5711 5708 5705 5702 5699 5696 5694 5692 5691 5691 5693 5695 5698 5700 5702 5705 5708 5712 5715 5719 5723 5727 5731 5736
5790 5785 5780 5775 5769 5764 5759 5753 5747 5742 5736 5731 5726 5721 5717 5713 5708 5704 5700 5697 5693 5689 5685 5681 5678 5675 5672 5671 5670 5671 5673 5675 5677 5680 5682 5685 5688 5692 5697 5702 5707 5713 5718
5779 5773 5768 5763 5757 5751 5745 5739 5733 5726 5720 5715 5709 5704 5700 5698 5695 5693 5689 5684 5679 5675 5670 5666 5662 5659 5656 5653 5652 5652 5653 5655 5657 5658 5660 5662 5665 5669 5673 5680 5687 5693 5700
5768 5762 5756 5750 5744 5737 5730 5723 5716 5710 5704 5698 5693 5689 5686 5683 5680 5679 5677 5672 5667 5661 5656 5652 5648 5644 5641 5639 5637 5637 5637 5638 5639 5640 5640 5641 5642 5645 5650 5657 5666 5674 5681
5757 5750 5743 5736 5729 5722 5714 5707 5700 5694 5688 5683 5679 5677 5674 5671 5667 5664 5661 5658 5652 5646 5641 5637 5633 5629 5626 5623 5622 5621 5621 5622 5622 5623 5622 5622 5622 5625 5630 5637 5646 5656 5663
5744 5736 5728 5721 5713 5706 5698 5691 5685 5679 5675 5671 5668 5664 5661 5658 5654 5649 5646 5642 5638 5631 5624 5619 5616 5614 5611 5609 5607 5606 5606 5607 5608 5608 5608 5607 5607 5609 5614 5621 5630 5638 5646
5731 5723 5714 5706 5699 5691 5684 5677 5672 5667 5663 5660 5656 5652 5648 5644 5639 5635 5631 5627 5623 5617 5610 5603 5599 5597 5595 5594 5592 5591 5592 5593 5594 5595 5596 5596 5596 5598 5602 5608 5616 5623 5631
5718 5710 5701 5693 5684 5676 5670 5665 5660 5656 5652 5649 5645 5640 5635 5629 5624 5618 5614 5610 5607 5603 5596 5589 5584 5580 5579 5579 5578 5578 5578 5580 5581 5583 5584 5585 5587 5589 5593 5598 5604 5610 5617
5705 5697 5688 5680 5671 5665 5659 5654 5650 5646 5641 5637 5632 5626 5620 5614 5607 5601 5596 5591 5588 5586 5582 5574 5569 5566 5564 5564 5565 5565 5566 5567 5569 5571 5573 5575 5578 5580 5584 5588 5593 5599 5604
5692 5684 5676 5668 5661 5655 5650 5644 5639 5634 5629 5623 5617 5611 5604 5598 5591 5584 5579 5574 5569 5566 5564 5560 5555 5552 5550 5550 5552 5553 5554 5556 5558 5560 5563 5566 5568 5571 5574 5578 5582 5586 5591
5680 5672 5664 5657 5650 5644 5639 5633 5627 5621 5615 5608 5601 5594 5587 5581 5574 5568 5563 5558 5554 5550 5547 5546 5542 5540 5538 5538 5540 5541 5543 5545 5548 5550 5553 5555 5558 5560 5563 5566 5570 5573 5577
5667 5660 5652 5646 5639 5633 5627 5620 5614 5606 5599 5591 5583 5576 5569 5563 5558 5552 5547 5544 5540 5536 5533 5532 5530 5528 5527 5528 5530 5531 5533 5536 5538 5541 5543 5545 5547 5549 5552 5554 5557 5560 5564
5656 5648 5641 5634 5628 5621 5614 5606 5598 5590 5582 5573 5565 5558 5552 5547 5542 5537 5533 5530 5527 5524 5521 5519 5519 5518 5519 5520 5522 5523 5525 5528 5531 5533 5535 5536 5538 5539 5541 5542 5544 5547 5550
5645 5637 5630 5623 5616 5608 5600 5591 5582 5574 5565 5556 5548 5541 5535 5530 5527 5523 5521 5518 5516 5514 5511 5509 5510 5510 5512 5513 5515 5517 5520 5522 5524 5526 5527 5528 5528 5529 5529 5531 5532 5533 5535
5634 5626 5618 5611 5602 5594 5585 5576 5567 5558 5549 5541 5533 5527 5521 5516 5513 5511 5509 5508 5506 5505 5503 5502 5503 5504 5506 5508 5510 5512 5515 5517 5518 5519 5520 5520 5520 5519 5519 5519 5518 5518 5518
5623 5615 5607 5598 5589 5580 5570 5561 5552 5543 5535 5528 5522 5516 5509 5505 5502 5500 5499 5499 5498 5497 5496 5496 5498 5500 5502 5503 5506 5508 5510 5512 5513 5514 5513 5513 5512 5510 5509 5507 5505 5503 5503
5612 5603 5595 5586 5576 5567 5557 5548 5539 5530 5523 5517 5511 5506 5500 5496 5494 5493 5492 5491 5490 5490 5491 5492 5494 5496 5498 5500 5502 5505 5507 5508 5509 5509 5508 5507 5505 5503 5500 5498 5495 5492 5490
5601 5592 5583 5574 5564 5555 5546 5536 5527 5519 5512 5507 5503 5498 5494 5491 5489 5488 5487 5486 5485 5486 5487 5489 5492 5494 5496 5498 5500 5502 5504 5505 5506 5505 5504 5502 5500 5497 5494 5491 5488 5485 5481
5590 5581 5572 5563 5553 5544 5534 5526 5517 5510 5505 5500 5496 5492 5489 5487 5485 5483 5482 5481 5482 5483 5485 5488 5490 5493 5495 5497 5499 5501 5503 5504 5504 5503 5501 5499 5497 5494 5491 5488 5485 5484 5482
5579 5569 5560 5551 5542 5533 5524 5517 5510 5504 5499 5494 5490 5486 5484 5482 5481 5479 5478 5478 5480 5482 5484 5487 5490 5493 5495 5497 5499 5501 5503 5504 5503 5502 5500 5498 5496 5493 5491 5488 5486 5486 5487